CZ-6A DEB, 60676

Orbit data source: Space-Track

CZ-6A DEB, 60676 is space debris in LEO originally from a launch on Tue, 06 Aug 2024 UTC launched from the Taiyaun Space Center, China (TSC). Debris objects in space refer to the collection of defunct objects orbiting the Earth. Examples of debris include non-operational satellites, rocket bodies, and fragments generated from explosions, collisions, or faulty payload assembly.

Loading next visibility...
Identifier
60676, 2024-140CD
Orbit
LEO
Country
Flag of CNCN / PRC
Related business
Manufacturer
SAST
Mission
Spacecraft
Bus & Motor
Unknown
Mass
Unknown
Launch date (UTC)
2024-08-06 (2 years ago)
Launch vehicle
Unknown
Launch site
Taiyaun Space Center, China (TSC)
Object type
Payload
Rocket body
Debris
Shape & HBR
Unknown shape, 0.5 m
Radar Cross Section
Medium (>0.1 m² and <1 m²)

Expand to show TLE details & history
Last TLE update: 14 hours ago

TLE from 14 hours ago
0 CZ-6A DEB
1 60676U 24140CD  26171.27958433  .00000172  00000-0  80967-4 0  9998
2 60676  88.9435 270.5171 0069443 196.5578 163.3341 14.13967357 96107
Epoch: 2026-06-20T06:42Z
TLE epoch observation values (Epoch: 2026-06-20T06:42:36.086Z)
Latitude
-0.00005°
Longitude
-98.62974°
Altitude
896.968 km
Speed
7.379 km/s
True Right ascension
18h 02m 04s
True Declination
0° 00' 00"
Sunlit
Object was in full shadow at epoch
Visualization orbit readout
Latitude
Unknown
Longitude
Unknown
Altitude
Unknown
Speed
Unknown
Apparent Right ascension
Unknown
Apparent Declination
Unknown
Sunlit
N/A
Visualization observer readout
Local Sidereal Time
07:23:00
Azimuth
Unknown
Elevation
Unknown
Doppler factor
Unknown
Orbital elements
Apogee altitude
892.931 km
Perigee altitude
792.643 km
Semi-major axis
7,220.924 km
Eccentricity
0.00694
Inclination
88.9435°
RAAN
270.5171°
Arg. of periapsis
196.5578°
True anomaly
163.56043°
Mean anomaly
163.3341°
Eccentric anomaly
163.44745°
Mean motion
3.53715 °/min
Orbital period
101.78 mins
BSTAR
0.000080967
Loading maneuver chart data...
Computing Atmospheric mass density...
Loading historical data...
Loading historical data...
Loading historical data...
Loading historical data...
Loading historical data...
Loading historical data...
Loading historical data...

Documentation

Showing up to 5 results
|